[TLELIST] Archives

 

[list_settings.list_name] Current TLEs

September 30th 2021 PDT

HST 1 20580U 90037B 21272.25165212 .00001003 00000-0 49629-4 0 9990 2 20580 28.4696 98.2242 0002819 99.9429 63.0242 15.09753135526695 ISS (ZARYA) 1 25544U 98067A 21273.48726090 .00001212 00000-0 30298-4 0 9993 2 25544 51.6456 182.0705 0003968 45.0544 125.1915 15.48872009304915 CXO 1 25867U 99040B 21273.89166873 .00001008 00000-0 00000-0 0 9992 2 25867 52.5638 250.7358 8482270 227.3051 0.4912 0.37806109 10843 ____________________________________________________________________ These 2-Line ...Continue Reading

[list_settings.list_name] Current TLEs

September 29th 2021 PDT

HST 1 20580U 90037B 21271.26007023 .00000992 00000-0 48950-4 0 9997 2 20580 28.4696 104.7863 0002822 90.0257 72.9024 15.09751595526541 ISS (ZARYA) 1 25544U 98067A 21272.48715278 -.00004439 00000-0 -72770-4 0 9995 2 25544 51.6449 187.0180 0004231 37.0778 312.9467 15.48863107304752 CXO 1 25867U 99040B 21273.89166873 .00001008 00000-0 00000-0 0 9992 2 25867 52.5638 250.7358 8482270 227.3051 0.4912 0.37806109 10843 ____________________________________________________________________ These 2-Line ...Continue Reading

[list_settings.list_name] Current TLEs

September 28th 2021 PDT

HST 1 20580U 90037B 21270.85678500 .00000983 00000-0 48406-4 0 9991 2 20580 28.4695 107.4553 0002825 86.1093 40.5763 15.09750961526483 ISS (ZARYA) 1 25544U 98067A 21271.28780583 .00037716 00000-0 69188-3 0 9993 2 25544 51.6451 192.9523 0003620 33.1017 105.0724 15.48896784304579 CXO 1 25867U 99040B 21273.89121276 .00001008 00000-0 00000+0 0 9999 2 25867 52.5638 250.7357 8482260 227.3050 0.4290 0.37806423 21974 ____________________________________________________________________ These 2-Line ...Continue Reading

[list_settings.list_name] Current TLEs

September 27th 2021 PDT

HST 1 20580U 90037B 21269.27698563 .00000983 00000-0 48419-4 0 9990 2 20580 28.4695 117.9102 0002813 70.2442 93.0525 15.09748672526247 ISS (ZARYA) 1 25544U 98067A 21270.32086323 .00001513 00000-0 35800-4 0 9999 2 25544 51.6444 197.7309 0003955 33.3388 109.6648 15.48858552304420 CXO 1 25867U 99040B 21271.24653120 .00000873 00000-0 00000-0 0 9994 2 25867 52.6198 250.8492 8478409 227.2638 0.4510 0.37806693 10835 ____________________________________________________________________ These 2-Line ...Continue Reading

[list_settings.list_name] Current TLEs

September 26th 2021 PDT

HST 1 20580U 90037B 21268.92015494 .00000975 00000-0 47947-4 0 9993 2 20580 28.4695 120.2716 0002807 66.7978 313.2464 15.09748186526454 ISS (ZARYA) 1 25544U 98067A 21269.35366397 .00026732 00000-0 49376-3 0 9994 2 25544 51.6431 202.5150 0003984 24.8666 121.5996 15.48877269304279 CXO 1 25867U 99040B 21271.24634953 .00000872 00000-0 00000-0 0 9996 2 25867 52.6196 250.8492 8478422 227.2639 0.4267 0.37806201 10822 ____________________________________________________________________ These 2-Line ...Continue Reading

[list_settings.list_name] Current TLEs

September 25th 2021 PDT

HST 1 20580U 90037B 21267.88032319 .00000908 00000-0 43895-4 0 9996 2 20580 28.4695 127.1529 0002788 56.3207 60.9407 15.09746519526035 ISS (ZARYA) 1 25544U 98067A 21268.32184350 .00025051 00000-0 46357-3 0 9996 2 25544 51.6438 207.6181 0003940 21.7921 127.5844 15.48861822304117 CXO 1 25867U 99040B 21271.24604701 .00000872 00000-0 00000+0 0 9993 2 25867 52.6197 250.8491 8478405 227.2638 0.3855 0.37806748 21967 ____________________________________________________________________ These 2-Line ...Continue Reading

[list_settings.list_name] Current TLEs

September 24th 2021 PDT

HST 1 20580U 90037B 21266.93700494 .00000796 00000-0 37126-4 0 9992 2 20580 28.4695 133.3956 0002770 46.6885 333.3940 15.09744800526156 ISS (ZARYA) 1 25544U 98067A 21267.21567994 .00001839 00000-0 42318-4 0 9994 2 25544 51.6435 213.0833 0003460 47.4035 50.6925 15.48430119303944 CXO 1 25867U 99040B 21268.60281868 .00000748 00000-0 00000+0 0 9996 2 25867 52.6818 250.9649 8473971 227.2225 0.5883 0.37806841 21954 ____________________________________________________________________ These 2-Line ...Continue Reading

[list_settings.list_name] Current TLEs

September 23rd 2021 PDT

HST 1 20580U 90037B 21265.37668113 .00000762 00000-0 35051-4 0 9998 2 20580 28.4694 143.7214 0002728 30.3938 132.3946 15.09742944525653 ISS (ZARYA) 1 25544U 98067A 21266.32270053 .00001760 00000-0 40870-4 0 9996 2 25544 51.6435 217.4974 0003478 45.0490 111.9902 15.48425701303808 CXO 1 25867U 99040B 21268.60281868 .00000748 00000-0 00000+0 0 9996 2 25867 52.6818 250.9649 8473971 227.2225 0.5883 0.37806841 21954 ____________________________________________________________________ These 2-Line ...Continue Reading

[list_settings.list_name] Current TLEs

September 22nd 2021 PDT

HST 1 20580U 90037B 21264.89535856 .00000685 00000-0 30424-4 0 9994 2 20580 28.4693 146.9067 0002702 25.4709 36.1074 15.09742038525585 ISS (ZARYA) 1 25544U 98067A 21265.41710065 .00001884 00000-0 43161-4 0 9990 2 25544 51.6442 221.9729 0003477 40.6225 104.9818 15.48422570303663 CXO 1 25867U 99040B 21265.95887554 .00000688 00000-0 00000-0 0 9999 2 25867 52.7395 251.0716 8468093 227.1937 0.6776 0.37805707 10804 ____________________________________________________________________ These 2-Line ...Continue Reading

[list_settings.list_name] Current TLEs

September 21st 2021 PDT

HST 1 20580U 90037B 21264.11270130 .00000679 00000-0 30028-4 0 9993 2 20580 28.4693 152.0862 0002678 17.2473 102.1000 15.09741257525726 ISS (ZARYA) 1 25544U 98067A 21264.38529174 .00001703 00000-0 39814-4 0 9994 2 25544 51.6436 227.0723 0003434 37.5378 112.6470 15.48417137303500 CXO 1 25867U 99040B 21265.95887554 .00000688 00000-0 00000-0 0 9999 2 25867 52.7395 251.0716 8468093 227.1937 0.6776 0.37805707 10804 ____________________________________________________________________ These 2-Line ...Continue Reading
  • This mailing list is a public mailing list - anyone may join or leave, at any time.
  • This mailing list is announce-only.

International Space Station (ISS) / Hubble Space Telescope (HST) / Chandra X-Ray Observatory Orbital Data via EMAIL

Privacy Policy:

Private list